Location: *
(23.5860°S, 65.4036°W)
Time: 03:35:33
(UTC+00:00)

GPS 2-17 Rocket1 - Pass Details

Date: 25 August 2019
Orbit: 571 x 659 km, 20.3° (Epoch: 21 September)

Event Time Altitude Azimuth Distance (km) Brightness Sun altitude
Rises 23:42:00 0° 289° (WNW) 2,829 7.8 -22.0°
Reaches altitude 10° 23:44:21 10° 294° (WNW) 1,943 6.5 -22.6°
Maximum altitude 23:48:44 48° 8° (N) 810 3.5 -23.6°
Enters shadow 23:48:48 48° 11° (N) 810 3.5 -23.6°
